User: anonymous   Login
Location: Unspecified
(0.0000°N, 0.0000°E)
Time: 19:54:32
(UTC+02:00)
Language:

Palapa 6 Rocket - Orbit

View from above orbital plane
View from above orbital plane
View from above satellite
View from above satellite

Ground track
Ground track

The orbit data is extracted from the following two-line orbital elements,

1 20571U 90034B   15209.82944404  .00000597  00000-0  42084-4 0  9996
2 20571 022.7474 336.7003 0512139 003.7539 159.9771 14.11046102294524
Epoch (UTC): 28 July 2015 19:54:23
Eccentricity: 0.0512139
inclination: 22.7474°
perigee height: 485 km
apogee height: 1226 km
right ascension of ascending node: 336.7003°
argument of perigee: 3.7539°
revolutions per day: 14.11046102
mean anomaly at epoch: 159.9771°
orbit number at epoch: 29452

The dashed part of the orbit path shows where the satellite is in the earth's shadow,  

DLR